SCP
0 0 0 0 0 0 0 0 0 0 0 0 0 0 0 0 0 0 0 0 0 0 0 0 0 0 0 0 0 0 0 0 0 0 0 0 0 0
0 0 0 0 0 0 0 0 0 0 0 0 0 0 0 0 0 0 0 0 0 0 0 0 0 0 0 0 0 0 0 0 0 0 0 0 0 0
0 0 0 0 0 0 0 0 0 0 0 0 0 0 0 0 0 0 0 0 0 0 0 0 0 0 0 0 0 0 0 0 0 0 0 0 0 0
0 0 0 0 0 0 0 0 0 0 0 0 0 0 0 0 0 0 0 0 0 0 0 0 0 0 0 0 0 0 0 0 0 0 0 0 0 0
0 0 0 0 0 0 0 0 0 0 0 0 0 0 0 0 0 0 0 0 0 0 0 0 0 0 0 0 0 0 0 0 0 0 0 0 0 0
0 0 0 0 0 0 0 0 0 0 0 0 0 0 0 0 0 0 0 0 0 0 0 0 0 0 0 0 0 0 0 0 0 0 0 0 0 0
0 0 0 0 0 0 0 0 0 0 0 0 0 0 0 0 0 0 0 0 0 0 0 0 0 0 0 0 0 0 0 0 0 0 0 0 0 0
0 0 0 0 0 0 0 0 0 0 0 0 0 0 0 0 0 0 0 0 0 0 0 0 0 0 0 0 0 0 0 0 0 0 0 0 0 0
0 0 0 0 0 0 0 0 0 0 0 0 0 0 0 0 0 0 0 0 0 0 0 0 0 0 0 0 0 0 0 0 0 0 0 0 0 0
0 0 0 0 0 0 0 0 0 0 0 0 0 0 0 0 0 0 0 0 0 0 0 0 0 0 0 0 0 0 0 0 0 0 0 0 0 0
0 0 0 0 0 0 0 0 0 0 0 0 0 0 0 0 0 0 0 0 0 0 0 0 0 0 0 0 0 0 0 0 0 0 0 0 0 0
0 0 0 0 0 0 0 0 0 0 0 0 0 0 0 0 0 0 0 0 0 0 0 0 0 0 0 0 0 0 0 0 0 0 0 0 0 0
0 0 0 0 0 0 0 0 0 0 0 0 0 0 0 0 0 0 0 0 0 0 0 0 0 0 0 0 0 0 0 0 0 0 0 0 0 0
0 0 0 0 0 0 0 0 0 0 0 0 0 0 0 0 0 0 0 0 0 0 0 0 0 0 0 0 0 0 0 0 0 0 0 0 0 0
0 0 0 0 0 0 0 0 0 0 0 0 0 0 0 0 0 0 0 0 0 0 0 0 0 0 0 0 0 0 0 0 0 0 0 0 0 0
0 0 0 0 0 0 0 0 0 0 0 0 0 0 0 0 0 0 0 0 0 0 0 0 0 0 0 0 0 0 0 0 0 0 0 0 0 0
0 0 0 0 0 0 0 0 0 0 0 0 0 0 0 0 0 0 0 0 0 0 0 0 0 0 0 0 0 0 0 0 0 0 0 0 0 0
0 0 0 0 0 0 0 0 0 0 0 0 0 0 0 0 0 0 0 0 0 0 0 0 0 0 0 0 0 0 0 0 0 0 0 0 0 0
0 0 0 0 0 0 0 0 0 0 0 0 0 0 0 0 0 0 0 0 0 0 0 0 0 0 0 0 0 0 0 0 0 0 0 0 0 0
0 0 0 0 0 0 0 0 0 0 0 0 0 0 0 0 0 0 0 0 0 0 0 0 0 0 0 0 0 0 0 0 0 0 0 0 0 0
0 0 0 0 0 0 0 0 0 0 0 0 0 0 0 0 0 0 0 0 0 0 0 0 0 0 0 0 0 0 0 0 0 0 0 0 0 0
0 0 0 0 0 0 0 0 0 0 0 0 0 0 0 0 0 0 0 0 0 0 0 0 0 0 0 0 0 0 0 0 0 0 0 0 0 0
0 0 0 0 0 0 0 0 0 0 0 0 0 0 0 0 0 0 0 0 0 0 0 0 0 0 0 0 0 0 0 0 0 0 0 0 0 0
Wind_Speed_500mb
22 24 26 25 28 30 33 32 35 44 66 64 61 60 54 52 49 51 51 51 51 51 52 51 50 49 48 48 48 50 50 50 49 47 49 49 56 59
23 24 27 28 30 31 32 34 36 39 48 65 65 60 54 50 47 47 47 48 47 48 49 49 49 48 45 42 41 44 49 50 54 53 52 52 57 61
26 27 28 31 30 31 33 35 37 39 53 64 61 56 54 51 46 44 45 47 48 44 41 42 41 38 39 41 40 45 45 50 52 54 58 61 63 62
27 29 28 32 31 33 34 35 37 38 46 55 59 57 55 50 49 49 46 46 48 46 42 39 37 38 40 42 45 45 44 47 53 56 59 60 62 66
28 30 31 34 33 34 35 35 36 37 40 49 56 56 56 54 53 49 50 48 45 44 41 42 41 43 44 46 45 50 54 56 58 59 61 62 62 64
28 31 33 35 35 36 36 34 34 36 39 45 50 54 54 55 59 63 61 56 54 52 43 42 44 49 55 59 61 61 62 62 63 63 64 62 59 61
29 32 34 36 37 38 38 34 34 37 39 45 49 53 55 60 62 63 63 65 64 45 46 55 55 56 53 55 55 52 51 51 55 57 53 61 64 65
31 33 33 36 38 37 36 37 36 36 41 46 49 53 56 57 56 54 55 62 59 52 68 78 71 71 62 53 55 56 54 49 51 49 51 56 59 62
35 34 34 36 39 37 36 33 32 36 40 44 49 50 53 47 49 53 57 59 61 66 68 78 62 54 59 67 59 52 53 52 51 45 46 55 55 60
38 37 36 37 39 37 33 33 34 34 38 42 45 42 43 44 51 55 59 62 63 59 56 61 63 78 78 65 34 31 30 37 38 38 39 46 52 54
40 40 39 38 38 36 36 35 36 35 40 41 40 40 40 41 50 51 52 59 68 68 50 54 75 83 82 56 19 50 40 39 39 46 39 40 46 47
42 41 40 39 37 36 37 38 40 39 37 36 36 37 40 41 42 46 51 52 54 60 44 72 70 68 52 33 71 55 48 37 34 39 44 43 45 41
44 41 39 40 37 36 38 39 40 40 39 38 37 38 37 38 40 40 40 44 46 48 48 52 61 51 44 67 61 63 48 50 49 41 43 41 39 27
44 39 40 39 36 37 39 38 39 38 37 37 38 36 36 37 37 36 37 37 39 46 47 41 48 46 58 68 61 60 58 56 47 43 36 33 37 22
42 41 39 38 38 38 38 38 36 35 36 36 36 35 36 40 39 40 38 41 40 39 36 37 40 42 52 59 60 54 54 56 37 45 39 38 34 27
47 42 39 38 37 35 36 35 34 35 34 35 35 36 38 39 40 43 46 50 53 47 23 29 38 46 55 49 46 48 38 40 47 43 37 32 30 28
45 44 42 40 38 35 34 33 34 33 34 35 35 37 39 41 41 42 45 47 47 50 51 48 37 40 39 41 41 32 36 38 43 46 39 33 29 27
49 47 42 41 36 33 31 32 32 32 32 33 35 37 40 40 43 44 46 44 44 46 49 50 55 55 53 48 13 42 28 35 42 41 38 36 31 23
51 45 43 38 33 31 30 30 29 30 31 33 35 37 39 39 41 45 42 40 40 43 43 49 46 45 51 53 58 38 44 32 37 43 41 34 33 22
51 46 40 36 32 31 30 28 27 29 31 33 34 35 36 40 42 38 34 38 41 45 48 47 41 41 47 54 60 59 31 37 33 42 45 44 32 24
46 42 36 33 31 30 28 28 29 28 30 31 32 34 35 38 42 35 34 36 35 44 48 49 47 39 39 42 50 56 47 30 27 37 40 44 41 32
40 37 34 32 31 29 28 29 28 27 29 30 32 34 35 35 39 37 35 39 43 44 49 51 49 48 47 40 48 55 57 46 27 30 35 34 36 19
38 35 34 31 29 28 29 28 27 28 28 29 33 33 34 37 38 38 39 41 43 45 46 52 49 45 48 47 49 52 59 50 42 36 35 27 20 22
Wind_Direction_500mb
294 296 300 300 297 297 297 299 295 296 310 322 327 333 333 327 322 319 318 316 312 306 302 300 300 299 295 288 280 276 274 274 275 278 272 273 270 275
295 297 299 296 296 297 298 298 296 294 290 313 323 330 331 329 328 324 321 316 316 311 305 299 298 301 304 304 298 291 285 277 274 278 278 277 281 280
293 295 295 293 296 296 298 300 301 297 296 313 321 329 330 330 329 327 324 320 320 319 312 300 301 306 306 302 298 298 295 288 282 278 277 276 278 279
289 293 294 293 296 295 299 301 304 303 302 311 321 327 330 331 328 328 326 325 322 320 320 308 302 301 301 297 298 295 293 289 289 289 286 282 282 281
290 292 293 293 294 297 300 303 304 306 308 310 319 325 328 330 329 328 326 323 321 317 314 304 300 297 296 296 293 290 291 289 284 285 285 281 287 283
287 289 290 291 295 296 298 299 301 304 306 312 317 320 324 329 329 327 324 322 319 318 318 306 300 297 297 296 294 285 284 282 281 282 284 283 285 287
284 286 288 290 293 297 296 297 299 302 311 312 314 319 323 325 325 324 322 323 326 329 324 317 317 317 316 308 307 289 285 289 284 282 281 283 282 284
282 282 283 288 292 294 293 295 300 309 309 310 316 318 319 319 318 320 325 329 327 329 322 323 324 321 320 317 318 309 295 291 294 289 281 284 285 286
279 279 280 285 289 287 286 290 297 302 304 307 311 312 312 315 319 321 321 320 319 321 323 320 324 323 323 325 326 313 296 295 298 300 290 289 288 289
277 277 278 283 284 282 283 288 295 299 298 301 306 311 311 314 316 317 317 316 315 318 330 319 327 324 327 337 348 346 327 310 298 287 294 292 294 296
272 274 277 282 280 280 284 291 294 298 300 306 308 306 306 310 310 314 314 320 324 329 336 326 325 324 330 345 336 336 331 319 309 305 299 303 304 298
266 269 274 278 277 280 288 293 295 299 305 304 303 303 309 312 313 316 318 320 323 328 332 323 324 331 328 332 328 334 333 329 330 322 315 304 307 304
261 265 269 274 276 280 286 290 295 301 303 304 304 307 309 309 312 311 311 315 319 315 326 323 319 326 317 316 320 329 332 332 329 321 318 313 313 309
258 260 262 268 270 277 282 288 295 301 302 302 303 306 309 309 309 312 318 320 320 320 319 313 312 319 315 312 318 327 331 330 332 328 317 324 323 272
251 253 258 264 268 274 281 288 296 298 299 300 304 307 310 311 315 316 317 315 319 321 313 310 310 309 314 311 311 318 329 331 336 329 326 320 315 304
243 249 256 258 264 271 279 287 292 295 297 299 301 307 309 310 314 315 320 323 324 330 339 326 318 312 319 321 312 311 327 331 328 325 325 317 309 308
239 245 250 256 263 270 277 285 290 292 293 297 302 306 309 311 312 314 318 320 321 327 330 333 332 323 326 328 322 323 323 328 331 324 329 317 313 312
236 244 249 254 259 267 277 283 286 287 291 294 298 303 309 313 310 312 315 318 322 326 330 336 339 338 337 343 329 326 314 319 331 333 331 324 312 318
237 242 246 250 255 264 273 277 280 280 285 290 296 305 311 312 311 312 317 322 326 330 329 327 338 342 339 332 327 336 330 327 323 327 327 326 322 307
234 238 241 246 256 265 269 276 279 281 287 290 296 304 310 312 312 314 315 320 324 324 321 324 328 333 327 321 316 326 329 317 317 317 315 316 309 298
231 231 237 247 256 260 265 270 274 281 283 288 298 304 309 312 316 314 312 313 310 316 320 318 321 320 310 312 319 318 326 325 301 307 311 308 310 300
226 229 237 245 252 255 260 266 272 282 288 292 296 302 307 309 316 315 309 310 315 315 316 319 323 323 326 329 320 319 323 330 322 302 302 294 280 277
224 230 239 244 248 253 259 265 275 281 284 291 294 299 300 301 312 312 305 306 310 313 319 320 323 324 323 325 326 318 322 327 325 315 321 311 264 256
Wind_Speed_850mb
22 24 26 25 28 30 33 32 35 44 66 64 61 60 54 52 49 51 51 51 51 51 52 51 50 49 48 48 48 50 50 50 49 47 49 49 56 59
23 24 27 28 30 31 32 34 36 39 48 65 65 60 54 50 47 47 47 48 47 48 49 49 49 48 45 42 41 44 49 50 54 53 52 52 57 61
26 27 28 31 30 31 33 35 37 39 53 64 61 56 54 51 46 44 45 47 48 44 41 42 41 38 39 41 40 45 45 50 52 54 58 61 63 62
27 29 28 32 31 33 34 35 37 38 46 55 59 57 55 50 49 49 46 46 48 46 42 39 37 38 40 42 45 45 44 47 53 56 59 60 62 66
28 30 31 34 33 34 35 35 36 37 40 49 56 56 56 54 53 49 50 48 45 44 41 42 41 43 44 46 45 50 54 56 58 59 61 62 62 64
28 31 33 35 35 36 36 34 34 36 39 45 50 54 54 55 59 63 61 56 54 52 43 42 44 49 55 59 61 61 62 62 63 63 64 62 59 61
29 32 34 36 37 38 38 34 34 37 39 45 49 53 55 60 62 63 63 65 64 45 46 55 55 56 53 55 55 52 51 51 55 57 53 61 64 65
31 33 33 36 38 37 36 37 36 36 41 46 49 53 56 57 56 54 55 62 59 52 68 78 71 71 62 53 55 56 54 49 51 49 51 56 59 62
35 34 34 36 39 37 36 33 32 36 40 44 49 50 53 47 49 53 57 59 61 66 68 78 62 54 59 67 59 52 53 52 51 45 46 55 55 60
38 37 36 37 39 37 33 33 34 34 38 42 45 42 43 44 51 55 59 62 63 59 56 61 63 78 78 65 34 31 30 37 38 38 39 46 52 54
40 40 39 38 38 36 36 35 36 35 40 41 40 40 40 41 50 51 52 59 68 68 50 54 75 83 82 56 19 50 40 39 39 46 39 40 46 47
42 41 40 39 37 36 37 38 40 39 37 36 36 37 40 41 42 46 51 52 54 60 44 72 70 68 52 33 71 55 48 37 34 39 44 43 45 41
44 41 39 40 37 36 38 39 40 40 39 38 37 38 37 38 40 40 40 44 46 48 48 52 61 51 44 67 61 63 48 50 49 41 43 41 39 27
44 39 40 39 36 37 39 38 39 38 37 37 38 36 36 37 37 36 37 37 39 46 47 41 48 46 58 68 61 60 58 56 47 43 36 33 37 22
42 41 39 38 38 38 38 38 36 35 36 36 36 35 36 40 39 40 38 41 40 39 36 37 40 42 52 59 60 54 54 56 37 45 39 38 34 27
47 42 39 38 37 35 36 35 34 35 34 35 35 36 38 39 40 43 46 50 53 47 23 29 38 46 55 49 46 48 38 40 47 43 37 32 30 28
45 44 42 40 38 35 34 33 34 33 34 35 35 37 39 41 41 42 45 47 47 50 51 48 37 40 39 41 41 32 36 38 43 46 39 33 29 27
49 47 42 41 36 33 31 32 32 32 32 33 35 37 40 40 43 44 46 44 44 46 49 50 55 55 53 48 13 42 28 35 42 41 38 36 31 23
51 45 43 38 33 31 30 30 29 30 31 33 35 37 39 39 41 45 42 40 40 43 43 49 46 45 51 53 58 38 44 32 37 43 41 34 33 22
51 46 40 36 32 31 30 28 27 29 31 33 34 35 36 40 42 38 34 38 41 45 48 47 41 41 47 54 60 59 31 37 33 42 45 44 32 24
46 42 36 33 31 30 28 28 29 28 30 31 32 34 35 38 42 35 34 36 35 44 48 49 47 39 39 42 50 56 47 30 27 37 40 44 41 32
40 37 34 32 31 29 28 29 28 27 29 30 32 34 35 35 39 37 35 39 43 44 49 51 49 48 47 40 48 55 57 46 27 30 35 34 36 19
38 35 34 31 29 28 29 28 27 28 28 29 33 33 34 37 38 38 39 41 43 45 46 52 49 45 48 47 49 52 59 50 42 36 35 27 20 22
Wind_Direction_850mb
294 296 300 300 297 297 297 299 295 296 310 322 327 333 333 327 322 319 318 316 312 306 302 300 300 299 295 288 280 276 274 274 275 278 272 273 270 275
295 297 299 296 296 297 298 298 296 294 290 313 323 330 331 329 328 324 321 316 316 311 305 299 298 301 304 304 298 291 285 277 274 278 278 277 281 280
293 295 295 293 296 296 298 300 301 297 296 313 321 329 330 330 329 327 324 320 320 319 312 300 301 306 306 302 298 298 295 288 282 278 277 276 278 279
289 293 294 293 296 295 299 301 304 303 302 311 321 327 330 331 328 328 326 325 322 320 320 308 302 301 301 297 298 295 293 289 289 289 286 282 282 281
290 292 293 293 294 297 300 303 304 306 308 310 319 325 328 330 329 328 326 323 321 317 314 304 300 297 296 296 293 290 291 289 284 285 285 281 287 283
287 289 290 291 295 296 298 299 301 304 306 312 317 320 324 329 329 327 324 322 319 318 318 306 300 297 297 296 294 285 284 282 281 282 284 283 285 287
284 286 288 290 293 297 296 297 299 302 311 312 314 319 323 325 325 324 322 323 326 329 324 317 317 317 316 308 307 289 285 289 284 282 281 283 282 284
282 282 283 288 292 294 293 295 300 309 309 310 316 318 319 319 318 320 325 329 327 329 322 323 324 321 320 317 318 309 295 291 294 289 281 284 285 286
279 279 280 285 289 287 286 290 297 302 304 307 311 312 312 315 319 321 321 320 319 321 323 320 324 323 323 325 326 313 296 295 298 300 290 289 288 289
277 277 278 283 284 282 283 288 295 299 298 301 306 311 311 314 316 317 317 316 315 318 330 319 327 324 327 337 348 346 327 310 298 287 294 292 294 296
272 274 277 282 280 280 284 291 294 298 300 306 308 306 306 310 310 314 314 320 324 329 336 326 325 324 330 345 336 336 331 319 309 305 299 303 304 298
266 269 274 278 277 280 288 293 295 299 305 304 303 303 309 312 313 316 318 320 323 328 332 323 324 331 328 332 328 334 333 329 330 322 315 304 307 304
261 265 269 274 276 280 286 290 295 301 303 304 304 307 309 309 312 311 311 315 319 315 326 323 319 326 317 316 320 329 332 332 329 321 318 313 313 309
258 260 262 268 270 277 282 288 295 301 302 302 303 306 309 309 309 312 318 320 320 320 319 313 312 319 315 312 318 327 331 330 332 328 317 324 323 272
251 253 258 264 268 274 281 288 296 298 299 300 304 307 310 311 315 316 317 315 319 321 313 310 310 309 314 311 311 318 329 331 336 329 326 320 315 304
243 249 256 258 264 271 279 287 292 295 297 299 301 307 309 310 314 315 320 323 324 330 339 326 318 312 319 321 312 311 327 331 328 325 325 317 309 308
239 245 250 256 263 270 277 285 290 292 293 297 302 306 309 311 312 314 318 320 321 327 330 333 332 323 326 328 322 323 323 328 331 324 329 317 313 312
236 244 249 254 259 267 277 283 286 287 291 294 298 303 309 313 310 312 315 318 322 326 330 336 339 338 337 343 329 326 314 319 331 333 331 324 312 318
237 242 246 250 255 264 273 277 280 280 285 290 296 305 311 312 311 312 317 322 326 330 329 327 338 342 339 332 327 336 330 327 323 327 327 326 322 307
234 238 241 246 256 265 269 276 279 281 287 290 296 304 310 312 312 314 315 320 324 324 321 324 328 333 327 321 316 326 329 317 317 317 315 316 309 298
231 231 237 247 256 260 265 270 274 281 283 288 298 304 309 312 316 314 312 313 310 316 320 318 321 320 310 312 319 318 326 325 301 307 311 308 310 300
226 229 237 245 252 255 260 266 272 282 288 292 296 302 307 309 316 315 309 310 315 315 316 319 323 323 326 329 320 319 323 330 322 302 302 294 280 277
224 230 239 244 248 253 259 265 275 281 284 291 294 299 300 301 312 312 305 306 310 313 319 320 323 324 323 325 326 318 322 327 325 315 321 311 264 256